Reynoldsville, PA

5:06 PM EST on December 04, 2016 (GMT -0500)
Du Bois-Jefferson County

Weather History for KDUJ - December, 2012

Change the Weather History Date:

Tuesday, December 18, 2012

  Actual Average Record
Temperature  
Mean Temperature 37 °F 27 °F  
Max Temperature 43 °F 34 °F 56 °F (1967)
Min Temperature 30 °F 20 °F -2 °F (1989)
Degree Days  
Heating Degree Days 28 38  
Month to date heating degree days 458 632  
Since 1 July heating degree days 1955 2149  
Cooling Degree Days 0 0  
Month to date cooling degree days 0 0  
Year to date cooling degree days 548 362  
Moisture  
Dew Point 35 °F    
Average Humidity 93    
Maximum Humidity 100    
Minimum Humidity 85    
Precipitation  
Precipitation 0.09 in 0.09 in 2.08 in (1990)
Month to date precipitation 3.83 1.87  
Sea Level Pressure  
Sea Level Pressure 29.61 in    
Wind  
Wind Speed 10 mph (West)    
Max Wind Speed 23 mph    
Max Gust Speed 30 mph    
Visibility 5 miles    
Events Rain , Snow    
T = Trace of Precipitation, MM = Missing Value Source: NWS Daily Summary

Daily Weather History Graph

Daily Weather History Graph

Search for Another Location

Airport or City:

Trip Planner

Search our weather history database for the weather conditions in past years. The results will help you decide how hot, cold, wet, or windy it might be!

Date:

Astronomy

Dec. 18, 2012 Rise Set
Actual Time 7:36 AM EST 4:48 PM EST
Civil Twilight 7:04 AM EST 5:20 PM EST
Nautical Twilight 6:30 AM EST 5:54 PM EST
Astronomical Twilight 5:56 AM EST 6:28 PM EST
Moon 11:12 AM EST (12/18) 11:16 PM EST (12/18)
Length of Visible Light 10h 15m
Length of Day
9h 12m
Waxing Crescent, 34% of the Moon is Illuminated
Dec 18
Waxing Crescent
Dec 20
First Quarter
Dec 28
Full
Jan 4
Last Quarter
Jan 11
New

Hourly Weather History & Observations

Time (EST) Temp. Windchill Dew Point Humidity Pressure Visibility Wind Dir Wind Speed Gust Speed Precip Events Conditions
12:09 AM 42.8 °F 38.6 °F 41.0 °F 93% 29.50 in 10.0 mi SE 6.9 mph - N/A   Overcast
12:56 AM 42.1 °F 38.4 °F 41.0 °F 96% 29.49 in 10.0 mi ESE 5.8 mph - N/A   Overcast
1:56 AM 41.0 °F 37.1 °F 41.0 °F 100% 29.47 in 10.0 mi East 5.8 mph - N/A   Overcast
2:56 AM 41.0 °F - 41.0 °F 100% 29.48 in 5.0 mi Calm Calm - 0.01 in   Overcast
3:56 AM 42.1 °F 39.2 °F 41.0 °F 96% 29.48 in 5.0 mi SSW 4.6 mph - N/A   Overcast
4:51 AM 42.8 °F 37.0 °F 42.8 °F 100% 29.46 in 1.8 mi SW 10.4 mph - N/A   Overcast
4:56 AM 43.0 °F 37.2 °F 42.1 °F 97% 29.48 in 1.2 mi SW 10.4 mph - N/A   Overcast
5:29 AM 42.8 °F 35.4 °F 42.8 °F 100% 29.46 in 2.0 mi WSW 15.0 mph 23.0 mph 0.00 in   Overcast
5:45 AM 42.8 °F 36.6 °F 42.8 °F 100% 29.46 in 3.0 mi SW 11.5 mph - 0.01 in   Overcast
5:56 AM 43.0 °F 37.2 °F 42.1 °F 97% 29.48 in 4.0 mi WSW 10.4 mph - 0.01 in Rain Light Rain
6:14 AM 42.8 °F 36.2 °F 42.8 °F 100% 29.47 in 1.8 mi SW 12.7 mph - 0.00 in   Overcast
6:41 AM 42.8 °F 36.6 °F 42.8 °F 100% 29.47 in 2.0 mi WSW 11.5 mph - 0.01 in Rain Light Rain
6:56 AM 42.1 °F 34.9 °F 42.1 °F 100% 29.49 in 4.0 mi WSW 13.8 mph - 0.01 in   Overcast
7:25 AM 41.0 °F 33.1 °F 39.2 °F 93% 29.48 in 9.0 mi West 15.0 mph 24.2 mph N/A   Overcast
7:56 AM 39.9 °F 30.8 °F 37.9 °F 93% 29.52 in 10.0 mi West 18.4 mph 24.2 mph 0.01 in   Overcast
8:16 AM 39.2 °F 31.6 °F 37.4 °F 93% 29.50 in 10.0 mi West 12.7 mph 21.9 mph N/A   Overcast
8:39 AM 37.4 °F 28.9 °F 37.4 °F 100% 29.51 in 10.0 mi West 13.8 mph 20.7 mph N/A   Overcast
8:56 AM 37.9 °F 28.9 °F 36.0 °F 93% 29.54 in 5.0 mi West 16.1 mph 26.5 mph N/A   Overcast
9:06 AM 37.4 °F 27.8 °F 35.6 °F 93% 29.52 in 7.0 mi West 17.3 mph 26.5 mph N/A   Overcast
9:56 AM 36.0 °F 26.7 °F 34.0 °F 93% 29.57 in 6.0 mi West 15.0 mph 25.3 mph 0.01 in   Overcast
10:56 AM 35.1 °F 25.9 °F 33.1 °F 92% 29.61 in 7.0 mi West 13.8 mph - 0.00 in   Overcast
11:21 AM 33.8 °F 23.5 °F 33.8 °F 100% 29.59 in 2.0 mi West 16.1 mph - 0.01 in Snow Light Snow
11:42 AM 33.8 °F 24.3 °F 32.0 °F 93% 29.59 in 1.2 mi West 13.8 mph 19.6 mph 0.02 in Snow Light Snow
11:56 AM 33.1 °F 23.9 °F 32.0 °F 96% 29.63 in 1.0 mi West 12.7 mph - 0.02 in Snow Light Snow
12:05 PM 33.8 °F 24.8 °F 32.0 °F 93% 29.60 in 0.8 mi West 12.7 mph - 0.00 in Snow Light Snow
12:31 PM 33.8 °F 24.8 °F 32.0 °F 93% 29.61 in 1.0 mi West 12.7 mph 24.2 mph 0.01 in Snow Light Snow
12:56 PM 33.1 °F 24.4 °F 32.0 °F 96% 29.64 in 1.0 mi West 11.5 mph 20.7 mph 0.01 in Snow Light Snow
1:35 PM 33.8 °F 25.8 °F 32.0 °F 93% 29.62 in 0.8 mi West 10.4 mph - 0.00 in Snow Light Snow
1:42 PM 33.8 °F 25.3 °F 32.0 °F 93% 29.62 in 1.0 mi West 11.5 mph 18.4 mph 0.01 in Snow Light Snow
1:56 PM 33.1 °F 22.6 °F 32.0 °F 96% 29.66 in 1.2 mi West 16.1 mph 23.0 mph 0.01 in Snow Light Snow
2:30 PM 33.8 °F 23.9 °F 32.0 °F 93% 29.63 in 3.0 mi West 15.0 mph - 0.00 in   Overcast
2:56 PM 34.0 °F 24.6 °F 32.0 °F 92% 29.68 in 9.0 mi West 13.8 mph 21.9 mph 0.00 in   Overcast
3:24 PM 33.8 °F 23.5 °F 32.0 °F 93% 29.66 in 9.0 mi West 16.1 mph 20.7 mph N/A   Overcast
3:56 PM 33.1 °F 23.9 °F 30.9 °F 92% 29.70 in 10.0 mi West 12.7 mph 19.6 mph N/A   Overcast
4:11 PM 33.8 °F 24.8 °F 30.2 °F 87% 29.68 in 10.0 mi West 12.7 mph - N/A   Overcast
4:56 PM 33.1 °F 25.5 °F 30.9 °F 92% 29.71 in 10.0 mi West 9.2 mph - N/A   Overcast
5:45 PM 33.8 °F 26.4 °F 30.2 °F 87% 29.70 in 10.0 mi West 9.2 mph - N/A   Overcast
5:52 PM 33.8 °F 26.4 °F 30.2 °F 87% 29.70 in 10.0 mi West 9.2 mph - N/A   Overcast
5:56 PM 33.1 °F 25.5 °F 30.9 °F 92% 29.73 in 10.0 mi West 9.2 mph - N/A   Overcast
6:07 PM 33.8 °F 26.4 °F 30.2 °F 87% 29.71 in 10.0 mi West 9.2 mph - N/A   Overcast
6:56 PM 33.1 °F 24.9 °F 30.0 °F 89% 29.75 in 9.0 mi West 10.4 mph - N/A   Mostly Cloudy
7:30 PM 32.0 °F 26.4 °F 30.2 °F 93% 29.73 in 8.0 mi West 5.8 mph - N/A   Mostly Cloudy
7:46 PM 32.0 °F 25.6 °F 30.2 °F 93% 29.74 in 7.0 mi West 6.9 mph - N/A   Scattered Clouds
7:56 PM 32.0 °F 25.6 °F 28.9 °F 88% 29.78 in 7.0 mi West 6.9 mph - N/A   Partly Cloudy
8:56 PM 30.0 °F 24.1 °F 28.0 °F 92% 29.78 in 6.0 mi West 5.8 mph - N/A   Clear
11:14 PM 30.2 °F 21.3 °F 28.4 °F 93% 29.77 in 1.2 mi West 10.4 mph - 0.00 in Snow Light Snow
11:21 PM 30.2 °F 21.3 °F 28.4 °F 93% 29.76 in 1.2 mi WSW 10.4 mph - 0.00 in Snow Light Snow
11:38 PM 30.2 °F 21.3 °F 30.2 °F 100% 29.76 in 0.8 mi West 10.4 mph - 0.00 in Snow Light Snow
11:43 PM 30.2 °F 21.3 °F 30.2 °F 100% 29.76 in 1.0 mi West 10.4 mph - 0.00 in Snow Light Snow
11:56 PM 30.9 °F 22.2 °F 30.0 °F 96% 29.81 in 1.2 mi WSW 10.4 mph - 0.00 in Snow Light Snow